#timestamp,LO_Frequency,Hit 
1504299615.7,286047005.1,N
1504299635.5,286047003.6,N
1504299655.3,286047004.5,N
1504299675.2,286047007.7,N
1504299695.9,286047003.4,N
1504299715.7,286047005.8,N
1504299735.6,286047009.0,N
1504299755.4,286047009.6,N
1504299775.2,286047011.9,P
1504299795.1,286047008.7,N
1504299796.0,286047008.7,N
1504299815.8,286047006.2,N
1504299835.6,286047012.4,P
1504299855.5,286047001.9,N
1504299875.3,286047003.8,N
1504299895.1,286047002.9,N
1504299915.9,286047000.2,N
1504299935.7,286047004.3,N
1504299955.5,286047000.8,N
1504299975.4,286046996.5,N
1504299995.2,286046999.4,N
1504300015.0,286047001.2,N
1504300015.9,286047001.2,N
1504300035.7,286046997.4,N
1504300055.6,286046997.1,N
1504300075.4,286047002.4,N
1504300095.2,286047002.0,N
1504300115.1,286046999.1,N
1504300116.0,286046999.1,N
1504300135.8,286046999.1,N
1504300155.6,286047000.1,N
1504300175.5,286047002.3,N
1504300195.3,286046999.1,N
1504300215.1,286046993.8,N
1504300235.9,286046999.4,N
1504300255.7,286046999.0,N
1504300275.5,286046994.0,N
1504300295.4,286046988.5,P
1504300315.2,286046993.0,N
1504300335.0,286046992.3,N
1504300335.9,286046992.3,N
1504300355.8,286046993.0,N
1504300375.6,286046992.7,N
1504300395.4,286046993.3,N
1504300415.3,286046999.6,N
1504300435.1,286047000.8,N
1504300436.0,286047000.8,N
1504300455.8,286047003.3,N
1504300475.6,286047007.2,N
1504300495.5,286047006.6,N
1504300515.3,286047004.8,N
1504300535.1,286047003.8,N
1504300555.9,286047003.3,N
1504300575.7,286046999.4,N
1504300595.5,286046999.6,N
1504300615.2,286046997.8,N
1504300635.9,286046996.5,N
1504300655.7,286046994.8,N
1504300675.5,286046997.6,N
1504300695.4,286047002.6,N
1504300715.2,286047002.4,N
1504300735.0,286047002.5,N
1504300735.9,286047002.5,N
1504300755.8,286047006.0,N
1504300775.6,286047005.0,N
1504300795.4,286047001.8,N
1504300815.3,286047002.4,N
1504300835.1,286047004.4,N
1504300836.0,286047004.4,N
1504300855.8,286047007.3,N
1504300875.7,286047006.6,N
1504300895.5,286046997.1,N
1504300915.3,286046992.1,N
1504300935.2,286046990.1,N
1504300955.9,286046994.3,N
1504300975.7,286046988.5,N
1504300995.6,286046990.0,N
1504301015.4,286046988.6,N
1504301035.2,286046995.4,N
1504301055.0,286046997.6,N
1504301055.9,286046997.6,N
1504301075.8,286046998.1,N
1504301095.6,286047001.2,N
1504301115.4,286046998.1,N
1504301135.3,286047000.7,N
1504301155.1,286047001.0,N
1504301175.8,286047004.0,N
1504301195.7,286046999.7,N
1504301215.5,286047000.4,N
1504301235.3,286047002.6,N
1504301255.2,286047001.6,N
1504301275.9,286047002.1,N
1504301295.7,286046995.0,N
1504301315.6,286046999.2,N
1504301335.4,286046999.4,N
1504301355.2,286047001.0,N
1504301375.0,286047001.2,N
1504301376.0,286047001.2,N
1504301395.8,286047002.5,N
1504301415.6,286047001.6,N
1504301435.4,286047000.2,N
1504301455.3,286046997.1,N
1504301475.1,286047002.5,N
1504301495.8,286047001.5,N
1504301515.7,286047002.0,N
1504301535.5,286046999.2,N
1504301555.3,286047003.6,N
1504301575.2,286047003.9,N
1504301595.9,286047004.3,N
1504301615.7,286047003.3,N
1504301635.6,286047003.3,N
1504301655.4,286047002.6,N
1504301675.2,286047004.7,N
1504301695.1,286047009.2,P
1504301696.0,286047009.2,N
1504301715.8,286047003.8,N
1504301735.6,286047003.0,N
1504301755.5,286047004.8,N
1504301775.3,286047005.3,N
1504301795.1,286047006.3,N
1504301815.9,286047004.9,N
1504301835.7,286047004.5,N
1504301855.5,286047006.6,N
1504301875.4,286047008.5,P
1504301895.4,286047003.6,N
1504301915.2,286047003.8,N
1504301935.1,286047004.0,N
1504301936.0,286047004.0,N
1504301955.8,286047002.4,N
1504301975.6,286047000.8,N
1504301995.5,286047001.8,N
1504302015.3,286047004.2,N
1504302035.1,286047003.1,N
1504302055.9,286047009.1,P
1504302075.7,286047001.8,N
1504302095.5,286047000.9,N
1504302115.4,286046997.6,N
1504302135.2,286046997.5,N
1504302155.0,286046998.8,N
1504302155.9,286046998.8,N
1504302175.8,286046995.4,N
1504302195.6,286046998.5,N
1504302215.4,286047000.8,N
1504302235.3,286046996.7,N
1504302255.1,286046996.1,N
1504302256.0,286046996.1,N
1504302275.8,286046994.3,N
1504302295.6,286046997.0,N
1504302315.5,286047001.5,N
1504302335.3,286047003.8,N
1504302355.1,286047005.4,N
1504302375.9,286047006.4,N
1504302395.7,286047010.1,N
1504302415.5,286047008.8,N
1504302435.4,286047005.7,N
1504302455.2,286046996.9,N
1504302475.0,286046996.6,N
1504302475.9,286046996.6,N
1504302495.8,286047001.1,N
1504302515.6,286047000.4,N
1504302535.4,286047001.0,N
1504302555.3,286047003.6,N
1504302575.1,286047002.0,N
1504302576.0,286047002.0,N
1504302595.8,286047003.2,N
1504302615.7,286047000.6,N
1504302635.5,286047000.9,N
1504302655.3,286047001.2,N
1504302675.1,286046997.0,N
1504302695.9,286047001.0,N
1504302715.7,286046998.5,N
1504302735.5,286046998.7,N
1504302755.4,286046998.4,N
1504302775.2,286047001.0,N
1504302795.0,286047000.0,N
1504302795.9,286047000.0,N
1504302815.8,286047001.0,N
1504302835.6,286047000.8,N
1504302855.4,286046996.7,N
1504302875.3,286046998.2,N
1504302895.1,286047001.0,N
1504302896.0,286047001.0,N
1504302915.8,286046997.4,N
1504302935.7,286046996.8,N
1504302955.5,286047000.7,N
1504302975.3,286046997.7,N
1504302995.2,286046999.0,N
1504303015.9,286047001.1,N
1504303035.7,286047002.6,N
1504303055.5,286047001.1,N
1504303075.4,286046994.6,N
1504303095.2,286046987.0,P
1504303115.1,286046992.4,N
1504303116.0,286046992.4,N
1504303135.8,286046998.4,N
1504303155.6,286047000.9,N
1504303175.4,286046995.9,N
1504303195.3,286046992.8,N
